Location: Ponte Samoggia
(44.5667°N, 11.1333°E)
Time: 23:12:23
(UTC+00:00)

MOS 1 Rocket - Pass Details

Date: 26 May 2022
Orbit: 615 x 827 km, 97.5° (Epoch: 29 June)

Event Time Altitude Azimuth Distance (km) Brightness Sun altitude
Exits shadow 00:44:09 16° 129° (SE) 1,603 5.0 -21.1°
Maximum altitude 00:47:02 36° 70° (ENE) 989 4.4 -20.9°
Drops below altitude 10° 00:50:58 10° 4° (N) 1,999 6.7 -20.6°
Sets 00:53:18 0° 356° (N) 2,924 7.6 -20.4°
